Regional Weather Roundup
Issued by NWS

Home | Current Version | Previous Version | Graphics & Text | Print | Product List | Glossary On
Versions: 1 2 3 4 5 6 7 8 9 10 11 12 13 14 15 16 17 18 19 20 21 22 23 24 25 26 27 28 29 30 31 32 33 34 35 36 37 38 39 40 41 42 43 44 45 46 47 48 49 50
000
ASUS45 KABQ 022201
RWRNM
WEATHER ROUNDUP FOR NEW MEXICO
NATIONAL WEATHER SERVICE ALBUQUERQUE NM
400 PM MDT SAT MAY 02 2015

NOTE: "FAIR" MEANS FEW OR NO CLOUDS BELOW 12,000 FEET AGL WITH NO
       SIGNIFICANT WEATHER OR OBSTRUCTIONS TO VISION.

      THIS PRODUCT IS RELEASED AS TWO VERSIONS.  ONE VERSION NEAR
      THE TOP OF THE HOUR CONTAINING PRELIMINARY DATA FROM ALBUQUERQUE
      AND OTHER STATIONS.  A FINAL VERSION WITH ADDITIONAL DATA IS
      ISSUED ABOUT 10 MINUTES AFTER THE HOUR.

NMZ501-503-504-510>518-022300-
NORTHWEST PLATEAU/NORTHCENTRAL MOUNTAINS

CITY           SKY/WX    TMP DP  RH WIND       PRES   REMARKS
FARMINGTON     SUNNY     73  27  18 SW20      29.98S
SANTA FE       CLOUDY    69  26  20 NE17      30.03S
TAOS           CLOUDY    66  27  22 NW23G31   30.11S
ANGEL FIRE     FAIR      58  26  28 W10       30.18S

$$
NMZ402-403-502-505>509-022300-
WESTCENTRAL MOUNTAINS/SOUTHWEST MOUNTAINS

CITY           SKY/WX    TMP DP  RH WIND       PRES   REMARKS
GALLUP         CLOUDY    69  24  18 E14       30.05S
GRANTS         CLOUDY    65  33  30 W17G25    30.11F
SILVER CITY      N/A     82  25  12 SW14G23   29.99F

$$
NMZ407-409-411-412-022300-
SOUTHERN DESERTS

CITY           SKY/WX    TMP DP  RH WIND       PRES   REMARKS
DEMING         MOSUNNY   90  22   8 S9G21     29.89F
HOLLOMAN AFB   SUNNY     88  17   7 S18G24    29.87F
ALAMOGORDO     MOSUNNY   86  21   9 S18       29.90F
T OR C         MOSUNNY   88  18   7 S18G26    29.91F

$$
NMZ519>523-022300-
CENTRAL VALLEYS/CENTRAL HIGHLANDS

CITY           SKY/WX    TMP DP  RH WIND       PRES   REMARKS
ALBUQUERQUE    CLOUDY    74  29  19 NW17G28   30.00F
MORIARTY ARPT  MOCLDY    71  23  16 W26G37    30.06R
CLINES CORNERS PTSUNNY   72  19  13 W21G29    30.05F
BELEN          MOCLDY    76  26  15 W16G26    30.01R
SOCORRO        NOT AVBL

$$
NMZ524>526-539-540-022300-
SOUTHCENTRAL MOUNTAINS

CITY           SKY/WX    TMP DP  RH WIND       PRES   REMARKS
RUIDOSO        NOT AVBL

$$
NMZ527>531-022300-
NORTHEAST HIGHLANDS/NORTHEAST PLAINS

CITY           SKY/WX    TMP DP  RH WIND       PRES   REMARKS
LAS VEGAS      CLOUDY    70  34  26 N17G23    30.06S
RATON          CLOUDY    68  26  20 S22G28    30.01F
CLAYTON        LGT RAIN  70  45  40 SW13G26   29.95R

$$
NMZ532>537-022300-
EASTCENTRAL PLAINS

CITY           SKY/WX    TMP DP  RH WIND       PRES   REMARKS
TUCUMCARI      PTSUNNY   85  33  15 SW12      29.87F
CANNON AFB     SUNNY     86  33  15 SW15G21   29.91F
CLOVIS AIRPORT SUNNY     84  36  17 SW22G29   29.91F

$$
NMZ028-029-538-022300-
SOUTHEAST PLAINS

CITY           SKY/WX    TMP DP  RH WIND       PRES   REMARKS
ROSWELL        MOSUNNY   89  31  12 S14G21    29.88F
ARTESIA        MOSUNNY   88  34  14 S15G24    29.89F
CARLSBAD       SUNNY     91  31  11 SE15      29.87F


$$



USA.gov is the U.S. government's official web portal to all federal, state and local government web resources and services.